Terug naar catalogus

COSMOS 1091

ActiefMilitairPO
NORAD 11320·PAYLOAD·🇷🇺 Russia

Gelanceerd Apr 7, 1979 vanaf Plesetsk Cosmodrome

Loading…

Volgende Passages (komende 24 uur)

TLE

VersSource: Space-Track

Epoch: Sep 14, 2026, 11:19 UTC

1 11320U 79028A   26257.47156449  .00000030  00000-0  16058-4 0  9992
2 11320  82.9197  66.9904 0029103 275.0003 102.5035 13.74927363379405

Volg COSMOS 1091 in realtime met AllMySat

Download on the App Store